1508695200.39,59448,11.81,73250.5,-0.75,-1.47,-1.47,0,*66
1508695201.6,59449,11.88,73256.5,-0.75,-1.59,-1.51,0,*6F
1508695202.79,59450,11.88,73256.5,-0.73,-1.51,-1.51,0,*69
1508695204.0,59451,11.88,73256.0,-0.75,-1.59,-1.51,0,*66
1508695205.23,59452,11.88,73254.5,-0.75,-1.51,-1.47,0,*6A
1508695206.42,59453,11.88,73254.5,-0.77,-1.55,-1.51,0,*6A
1508695207.61,59454,11.88,73256.8,-0.77,-1.55,-1.51,0,*6D
1508695208.83,59455,11.88,73254.0,-0.77,-1.55,-1.47,0,*6B
1508695210.04,59456,11.88,73258.3,-0.77,-1.47,-1.51,0,*6C
1508695211.25,59457,11.88,73254.0,-0.75,-1.51,-1.51,0,*68
1508695212.47,59458,11.81,73252.8,-0.75,-1.51,-1.51,0,*67
1508695213.68,59459,11.88,73258.8,-0.75,-1.51,-1.51,0,*66
1508695214.87,59460,11.88,73254.0,-0.77,-1.55,-1.51,0,*6A
1508695216.08,59461,11.88,73258.5,-0.77,-1.51,-1.47,0,*68
1508695217.35,59462,11.88,73258.5,-0.75,-1.47,-1.47,0,*6E
1508695218.62,59463,11.88,73254.8,-0.75,-1.47,-1.47,0,*6F
1508695219.85,59464,11.81,73252.5,-0.75,-1.59,-1.47,0,*67
1508695221.07,59465,11.88,73256.5,-0.75,-1.51,-1.51,0,*69
1508695222.25,59466,11.88,73258.0,-0.77,-1.55,-1.55,0,*68
1508695223.46,59467,11.88,73256.3,-0.75,-1.51,-1.51,0,*6B
1508695224.67,59468,11.88,73254.8,-0.75,-1.59,-1.59,0,*64
1508695225.86,59469,11.88,73254.5,-0.77,-1.55,-1.55,0,*67
1508695227.1,59470,11.88,73256.0,-0.75,-1.47,-1.51,0,*6A
1508695228.35,59471,11.88,73258.5,-0.75,-1.47,-1.51,0,*6B
1508695229.59,59472,11.88,73254.0,-0.75,-1.51,-1.47,0,*68
1508695230.77,59473,11.88,73258.3,-0.77,-1.55,-1.51,0,*68
1508695232.01,59474,11.88,73256.3,-0.75,-1.51,-1.47,0,*6E
1508695233.28,59475,11.88,73256.0,-0.75,-1.47,-1.47,0,*68
1508695234.49,59476,11.88,73258.8,-0.75,-1.51,-1.51,0,*6B
1508695235.71,59477,11.88,73258.0,-0.75,-1.51,-1.51,0,*6A
1508695236.92,59478,11.88,73254.0,-0.75,-1.59,-1.51,0,*6D
1508695238.13,59479,11.88,73258.3,-0.75,-1.51,-1.51,0,*64
1508695239.34,59480,11.88,73256.0,-0.75,-1.51,-1.51,0,*62
1508695240.58,59481,11.88,73258.0,-0.75,-1.47,-1.51,0,*64
1508695241.83,59482,11.88,73258.0,-0.75,-1.43,-1.55,0,*67
1508695243.07,59483,11.88,73256.3,-0.75,-1.47,-1.51,0,*66
1508695244.31,59484,11.81,73254.5,-0.75,-1.43,-1.51,0,*65
1508695245.58,59485,11.88,73254.8,-0.75,-1.47,-1.43,0,*63
1508695246.85,59486,11.88,73256.0,-0.75,-1.47,-1.47,0,*64
1508695248.12,59487,11.88,73256.0,-0.75,-1.47,-1.47,0,*65
1508695249.39,59488,11.88,73258.3,-0.75,-1.47,-1.47,0,*6A
1508695250.66,59489,11.88,73258.3,-0.75,-1.47,-1.47,0,*6B
1508695251.93,59490,11.88,73258.0,-0.75,-1.47,-1.47,0,*63
1508695253.2,59491,11.88,73258.3,-0.75,-1.47,-1.43,0,*66
1508695254.44,59492,11.88,73258.8,-0.75,-1.51,-1.47,0,*66
1508695255.68,59493,11.88,73256.5,-0.75,-1.51,-1.47,0,*67
1508695256.87,59494,11.88,73252.8,-0.77,-1.51,-1.51,0,*65
1508695258.08,59495,11.88,73256.8,-0.75,-1.59,-1.51,0,*6E
1508695259.29,59496,11.88,73254.3,-0.75,-1.51,-1.51,0,*65
1508695260.5,59497,11.88,73256.3,-0.75,-1.51,-1.51,0,*64
1508695261.71,59498,11.88,73256.3,-0.75,-1.51,-1.51,0,*6B
1508695262.9,59499,11.88,73252.3,-0.77,-1.63,-1.63,0,*68
1508695264.11,59500,11.88,73256.0,-0.75,-1.51,-1.51,0,*6B
1508695265.32,59501,11.88,73254.3,-0.75,-1.59,-1.59,0,*6A
1508695266.53,59502,11.88,73254.3,-0.75,-1.59,-1.51,0,*61
1508695267.72,59503,11.88,73256.5,-0.77,-1.55,-1.55,0,*6A
1508695268.9,59504,11.88,73256.5,-0.77,-1.55,-1.55,0,*6D
1508695270.09,59505,11.88,73256.8,-0.77,-1.55,-1.55,0,*6C
1508695271.33,59506,11.88,73256.8,-0.75,-1.51,-1.47,0,*6A
1508695272.54,59507,11.88,73258.3,-0.75,-1.51,-1.51,0,*6C
1508695273.75,59508,11.88,73256.3,-0.75,-1.51,-1.51,0,*63
1508695274.96,59509,11.88,73256.5,-0.75,-1.51,-1.51,0,*62
1508695276.18,59510,11.88,73256.8,-0.75,-1.59,-1.51,0,*62
1508695277.38,59511,11.88,73258.5,-0.75,-1.59,-1.59,0,*6B
1508695278.59,59512,11.88,73258.0,-0.75,-1.63,-1.59,0,*61
1508695279.81,59513,11.88,73254.0,-0.75,-1.59,-1.51,0,*61
1508695281.01,59514,11.88,73254.5,-0.75,-1.59,-1.59,0,*6E
1508695282.22,59515,11.88,73256.5,-0.75,-1.59,-1.59,0,*6F
1508695283.43,59516,11.88,73254.5,-0.75,-1.59,-1.59,0,*6C
1508695284.62,59517,11.88,73256.5,-0.77,-1.63,-1.55,0,*6A
1508695285.82,59518,11.88,73254.8,-0.75,-1.59,-1.59,0,*62
1508695287.01,59519,11.88,73254.0,-0.77,-1.55,-1.63,0,*64
1508695288.2,59520,11.88,73256.5,-0.77,-1.63,-1.63,0,*6B
1508695289.39,59521,11.88,73258.8,-0.77,-1.55,-1.55,0,*6A
1508695290.57,59522,11.88,73256.0,-0.77,-1.55,-1.55,0,*69
1508695291.78,59523,11.88,73258.0,-0.75,-1.51,-1.55,0,*6E
1508695293.0,59524,11.88,73256.3,-0.75,-1.51,-1.51,0,*6D
1508695294.21,59525,11.81,73252.8,-0.75,-1.63,-1.63,0,*6C
1508695295.4,59526,11.88,73258.3,-0.77,-1.67,-1.63,0,*69
1508695296.59,59527,11.88,73254.3,-0.77,-1.67,-1.63,0,*68
1508695297.77,59528,11.88,73256.3,-0.77,-1.55,-1.55,0,*63
1508695298.99,59529,11.88,73254.3,-0.79,-1.55,-1.63,0,*69
1508695300.18,59530,11.88,73252.0,-0.77,-1.55,-1.55,0,*6A
1508695301.39,59531,11.88,73258.8,-0.75,-1.51,-1.51,0,*69
1508695302.57,59532,11.88,73258.0,-0.77,-1.63,-1.55,0,*6D
1508695303.76,59533,11.88,73258.3,-0.77,-1.55,-1.55,0,*69
1508695304.95,59534,11.88,73256.8,-0.77,-1.55,-1.51,0,*6A
1508695306.14,59535,11.88,73256.0,-0.77,-1.63,-1.51,0,*6E
1508695307.32,59536,11.88,73256.8,-0.77,-1.55,-1.55,0,*6C
1508695308.51,59537,11.88,73256.3,-0.77,-1.63,-1.55,0,*68
1508695309.72,59538,11.88,73256.3,-0.75,-1.59,-1.51,0,*68
1508695310.91,59539,11.88,73254.5,-0.77,-1.55,-1.63,0,*66
1508695312.09,59540,11.88,73256.5,-0.77,-1.55,-1.55,0,*6D
1508695313.28,59541,11.88,73256.0,-0.77,-1.63,-1.55,0,*69
1508695314.47,59542,11.88,73254.5,-0.77,-1.55,-1.55,0,*6F
1508695315.65,59543,11.81,73252.8,-0.77,-1.55,-1.55,0,*6E
1508695316.86,59544,11.88,73254.8,-0.75,-1.51,-1.51,0,*6B
1508695318.07,59545,11.88,73256.5,-0.75,-1.51,-1.59,0,*62
1508695319.28,59546,11.88,73256.8,-0.75,-1.51,-1.55,0,*6D
1508695320.47,59547,11.88,73256.3,-0.77,-1.55,-1.55,0,*6A
1508695321.66,59548,11.88,73258.3,-0.77,-1.63,-1.51,0,*64
1508695322.84,59549,11.88,73256.5,-0.77,-1.55,-1.55,0,*64
1508695324.03,59550,11.88,73252.0,-0.77,-1.51,-1.63,0,*6D
1508695325.21,59551,11.88,73254.3,-0.77,-1.63,-1.55,0,*68
1508695326.42,59552,11.88,73256.5,-0.75,-1.59,-1.59,0,*6C
1508695327.61,59553,11.88,73254.3,-0.77,-1.67,-1.63,0,*6B
1508695328.82,59554,11.88,73254.8,-0.75,-1.51,-1.51,0,*6A
1508695330.01,59555,11.88,73258.3,-0.77,-1.67,-1.63,0,*6D
1508695331.2,59556,11.88,73254.0,-0.77,-1.63,-1.63,0,*6A
1508695332.39,59557,11.88,73254.5,-0.77,-1.55,-1.55,0,*6B
1508695333.59,59558,11.88,73252.8,-0.75,-1.59,-1.59,0,*66
1508695334.81,59559,11.81,73254.8,-0.75,-1.67,-1.59,0,*6A
1508695336.0,59560,11.81,73254.5,-0.77,-1.63,-1.63,0,*6F
1508695337.18,59561,11.88,73258.0,-0.77,-1.63,-1.63,0,*6E
1508695338.38,59562,11.88,73258.8,-0.77,-1.75,-1.67,0,*6E
1508695339.57,59563,11.88,73258.3,-0.77,-1.67,-1.67,0,*6C
1508695340.78,59564,11.88,73256.0,-0.75,-1.59,-1.51,0,*61
1508695341.97,59565,11.88,73254.3,-0.77,-1.55,-1.63,0,*6F
1508695343.15,59566,11.88,73254.8,-0.77,-1.63,-1.55,0,*6C
1508695344.34,59567,11.88,73256.3,-0.77,-1.63,-1.63,0,*68
1508695345.53,59568,11.88,73256.8,-0.77,-1.63,-1.63,0,*67
1508695346.72,59569,11.88,73256.5,-0.77,-1.75,-1.63,0,*61
1508695347.93,59570,11.88,73258.0,-0.79,-1.63,-1.63,0,*60
1508695349.15,59571,11.81,73252.8,-0.79,-1.63,-1.63,0,*61
1508695350.33,59572,11.81,73252.8,-0.77,-1.63,-1.55,0,*69
1508695351.52,59573,11.88,73258.8,-0.77,-1.55,-1.55,0,*6D
1508695352.71,59574,11.88,73256.3,-0.77,-1.55,-1.55,0,*6A
1508695353.89,59575,11.88,73254.8,-0.77,-1.55,-1.55,0,*6B
1508695355.08,59576,11.88,73256.3,-0.77,-1.55,-1.55,0,*68
1508695356.29,59577,11.88,73256.5,-0.75,-1.59,-1.51,0,*63
1508695357.48,59578,11.88,73256.5,-0.77,-1.55,-1.55,0,*66
1508695358.68,59579,11.88,73254.0,-0.75,-1.59,-1.59,0,*65
1508695359.87,59580,11.88,73252.5,-0.77,-1.63,-1.55,0,*64
1508695361.08,59581,11.88,73252.3,-0.75,-1.59,-1.59,0,*62
1508695362.27,59582,11.88,73254.3,-0.77,-1.63,-1.63,0,*63
1508695363.45,59583,11.81,73252.8,-0.77,-1.55,-1.63,0,*67
1508695364.64,59584,11.88,73256.3,-0.77,-1.67,-1.75,0,*66
1508695365.83,59585,11.88,73258.0,-0.77,-1.63,-1.63,0,*64
1508695367.05,59586,11.88,73254.0,-0.79,-1.67,-1.63,0,*6D
1508695368.24,59587,11.81,73252.0,-0.77,-1.67,-1.63,0,*62
1508695369.43,59588,11.88,73252.5,-0.77,-1.67,-1.67,0,*69
1508695370.62,59589,11.88,73252.8,-0.77,-1.67,-1.67,0,*68
1508695371.81,59590,11.88,73256.5,-0.77,-1.75,-1.79,0,*6C
1508695373.0,59591,11.88,73256.0,-0.77,-1.75,-1.67,0,*62
1508695374.19,59592,11.88,73254.8,-0.77,-1.67,-1.67,0,*62
1508695375.41,59593,11.88,73256.5,-0.79,-1.75,-1.67,0,*6E
1508695376.63,59594,11.88,73254.0,-0.79,-1.75,-1.67,0,*69
1508695377.85,59595,11.88,73256.5,-0.79,-1.67,-1.75,0,*68
1508695379.07,59596,11.88,73256.8,-0.79,-1.67,-1.67,0,*68
1508695380.28,59597,11.88,73258.0,-0.79,-1.67,-1.55,0,*68
1508695381.5,59598,11.88,73258.5,-0.79,-1.67,-1.67,0,*66
1508695382.72,59599,11.88,73258.5,-0.79,-1.67,-1.67,0,*67
1508695383.94,59600,11.88,73256.0,-0.79,-1.67,-1.63,0,*60
1508695385.15,59601,11.88,73256.0,-0.79,-1.67,-1.63,0,*61
1508695386.37,59602,11.88,73256.0,-0.79,-1.67,-1.63,0,*62
1508695387.57,59603,11.88,73256.3,-0.81,-1.71,-1.67,0,*67
1508695388.79,59604,11.88,73260.0,-0.79,-1.63,-1.63,0,*60
1508695390.0,59605,11.88,73256.5,-0.79,-1.63,-1.55,0,*64
1508695391.19,59606,11.88,73252.3,-0.81,-1.67,-1.67,0,*65
1508695392.39,59607,11.88,73258.3,-0.81,-1.67,-1.67,0,*64
1508695393.61,59608,11.88,73256.3,-0.79,-1.63,-1.63,0,*6C
1508695394.82,59609,11.88,73254.8,-0.79,-1.67,-1.67,0,*6D
1508695396.04,59610,11.88,73256.0,-0.79,-1.75,-1.75,0,*65
1508695397.26,59611,11.88,73254.8,-0.79,-1.75,-1.67,0,*67
1508695398.47,59612,11.88,73258.5,-0.79,-1.67,-1.63,0,*63
1508695399.68,59613,11.88,73258.5,-0.81,-1.71,-1.71,0,*61
1508695400.89,59614,11.88,73254.5,-0.79,-1.63,-1.63,0,*61
1508695402.11,59615,11.88,73256.3,-0.79,-1.67,-1.63,0,*64
1508695403.32,59616,11.81,73252.3,-0.79,-1.63,-1.63,0,*63
1508695404.54,59617,11.88,73252.5,-0.79,-1.63,-1.63,0,*62
1508695405.75,59618,11.88,73256.3,-0.79,-1.63,-1.63,0,*6D
1508695406.94,59619,11.88,73254.5,-0.81,-1.67,-1.59,0,*66
1508695408.16,59620,11.88,73256.0,-0.79,-1.67,-1.55,0,*67
1508695409.35,59621,11.88,73258.5,-0.81,-1.67,-1.71,0,*67
1508695410.57,59622,11.88,73258.3,-0.79,-1.55,-1.63,0,*61
1508695411.78,59623,11.88,73254.0,-0.79,-1.55,-1.55,0,*65
1508695413.0,59624,11.88,73256.5,-0.79,-1.63,-1.63,0,*62
1508695414.19,59625,11.88,73258.8,-0.81,-1.59,-1.67,0,*69
1508695415.38,59626,11.88,73256.3,-0.81,-1.67,-1.59,0,*6A
1508695416.59,59627,11.88,73258.3,-0.79,-1.55,-1.55,0,*61
1508695417.8,59628,11.88,73258.5,-0.79,-1.51,-1.55,0,*6A
1508695419.0,59629,11.81,73254.5,-0.81,-1.67,-1.67,0,*68
1508695420.21,59630,11.88,73256.0,-0.79,-1.55,-1.55,0,*67
1508695421.39,59631,11.81,73252.8,-0.81,-1.59,-1.59,0,*61
1508695422.61,59632,11.88,73256.8,-0.79,-1.55,-1.55,0,*65
1508695423.82,59633,11.88,73258.0,-0.79,-1.55,-1.55,0,*64
1508695425.03,59634,11.88,73254.3,-0.79,-1.55,-1.55,0,*63
1508695426.22,59635,11.88,73258.0,-0.81,-1.59,-1.59,0,*65
1508695427.41,59636,11.88,73256.0,-0.81,-1.67,-1.59,0,*6B
1508695428.62,59637,11.88,73256.3,-0.79,-1.63,-1.55,0,*65
1508695429.84,59638,11.88,73254.5,-0.79,-1.67,-1.67,0,*6F
1508695431.06,59639,11.88,73256.8,-0.79,-1.67,-1.75,0,*6D
1508695432.27,59640,11.88,73254.0,-0.79,-1.75,-1.79,0,*6C
1508695433.47,59641,11.88,73252.8,-0.81,-1.71,-1.71,0,*66
1508695434.67,59642,11.88,73256.0,-0.81,-1.59,-1.67,0,*68
1508695435.85,59643,11.88,73256.5,-0.81,-1.59,-1.59,0,*64
1508695437.07,59644,11.88,73256.5,-0.79,-1.55,-1.63,0,*61
1508695438.28,59645,11.88,73254.8,-0.79,-1.63,-1.55,0,*60
1508695439.47,59646,11.88,73256.8,-0.81,-1.55,-1.55,0,*61
1508695440.68,59647,11.88,73258.3,-0.79,-1.55,-1.55,0,*67
1508695441.89,59648,11.88,73258.0,-0.79,-1.63,-1.55,0,*6D
1508695443.11,59649,11.88,73258.8,-0.79,-1.67,-1.63,0,*6D
1508695444.33,59650,11.88,73254.3,-0.79,-1.67,-1.63,0,*65
1508695445.54,59651,11.88,73254.3,-0.79,-1.55,-1.63,0,*65
1508695446.76,59652,11.88,73258.0,-0.79,-1.63,-1.63,0,*63
1508695447.97,59653,11.88,73256.5,-0.79,-1.63,-1.55,0,*67
1508695449.18,59654,11.88,73258.8,-0.79,-1.55,-1.55,0,*65
1508695450.37,59655,11.88,73258.0,-0.81,-1.59,-1.59,0,*63
1508695451.56,59656,11.81,73254.8,-0.81,-1.67,-1.67,0,*60
1508695452.76,59657,11.88,73256.3,-0.81,-1.67,-1.67,0,*61
1508695453.97,59658,11.88,73252.8,-0.79,-1.63,-1.59,0,*60
1508695455.18,59659,11.88,73256.5,-0.79,-1.63,-1.55,0,*6D
1508695456.38,59660,11.88,73256.3,-0.81,-1.67,-1.67,0,*65
1508695457.56,59661,11.88,73256.5,-0.81,-1.59,-1.59,0,*64
1508695458.78,59662,11.88,73254.5,-0.79,-1.55,-1.55,0,*60
1508695459.99,59663,11.88,73256.5,-0.79,-1.55,-1.55,0,*61
1508695461.18,59664,11.88,73258.3,-0.81,-1.59,-1.59,0,*61
1508695462.39,59665,11.88,73256.0,-0.79,-1.55,-1.55,0,*67
1508695463.6,59666,11.88,73256.8,-0.79,-1.51,-1.55,0,*60
1508695464.81,59667,11.88,73256.3,-0.79,-1.51,-1.51,0,*65
1508695466.05,59668,11.81,73252.8,-0.79,-1.47,-1.51,0,*6D
1508695467.3,59669,11.88,73256.8,-0.79,-1.47,-1.51,0,*6C
1508695468.51,59670,11.88,73256.0,-0.79,-1.51,-1.51,0,*63
1508695469.72,59671,11.88,73256.5,-0.79,-1.51,-1.51,0,*62
1508695470.94,59672,11.88,73254.5,-0.79,-1.55,-1.51,0,*65
1508695472.15,59673,11.88,73258.8,-0.79,-1.55,-1.51,0,*64
1508695473.37,59674,11.88,73258.8,-0.79,-1.67,-1.67,0,*67
1508695474.57,59675,11.88,73256.8,-0.81,-1.59,-1.67,0,*6C
1508695475.78,59676,11.81,73254.5,-0.79,-1.55,-1.63,0,*60
1508695477.0,59677,11.88,73256.8,-0.79,-1.63,-1.63,0,*64
1508695478.21,59678,11.88,73258.3,-0.79,-1.75,-1.75,0,*6B
1508695479.43,59679,11.81,73254.8,-0.79,-1.75,-1.75,0,*6A
1508695480.62,59680,11.88,73252.5,-0.81,-1.71,-1.59,0,*61
1508695481.83,59681,11.88,73258.3,-0.79,-1.63,-1.55,0,*68
1508695483.05,59682,11.88,73258.3,-0.79,-1.75,-1.63,0,*69
1508695484.26,59683,11.88,73256.8,-0.79,-1.63,-1.63,0,*6F
1508695485.47,59684,11.88,73258.3,-0.81,-1.71,-1.71,0,*6F
1508695486.67,59685,11.88,73256.0,-0.81,-1.71,-1.67,0,*69
1508695487.87,59686,11.88,73258.5,-0.81,-1.67,-1.67,0,*6D
1508695489.05,59687,11.88,73258.0,-0.81,-1.67,-1.59,0,*61
1508695490.27,59688,11.88,73254.5,-0.79,-1.55,-1.55,0,*64
1508695491.48,59689,11.88,73254.3,-0.79,-1.55,-1.55,0,*65
1508695492.69,59690,11.81,73252.0,-0.79,-1.55,-1.55,0,*6D
1508695493.93,59691,11.88,73256.0,-0.79,-1.51,-1.47,0,*6B
1508695495.12,59692,11.88,73256.3,-0.81,-1.55,-1.55,0,*68
1508695496.33,59693,11.81,73252.5,-0.79,-1.51,-1.51,0,*6E
1508695497.52,59694,11.88,73256.5,-0.81,-1.59,-1.55,0,*62
1508695498.73,59695,11.88,73258.5,-0.79,-1.63,-1.63,0,*68
1508695499.95,59696,11.88,73256.5,-0.79,-1.63,-1.63,0,*6B
1508695501.17,59697,11.88,73254.0,-0.79,-1.67,-1.67,0,*6A
1508695502.36,59698,11.88,73256.5,-0.81,-1.79,-1.79,0,*62
1508695503.55,59699,11.88,73256.3,-0.81,-1.79,-1.79,0,*63
1508695504.75,59700,11.81,73252.0,-0.81,-1.79,-1.67,0,*6D
1508695505.95,59701,11.88,73256.0,-0.81,-1.71,-1.79,0,*6B
1508695507.14,59702,11.88,73256.0,-0.81,-1.79,-1.79,0,*60
1508695508.33,59703,11.88,73256.5,-0.81,-1.79,-1.79,0,*61
1508695509.53,59704,11.88,73258.3,-0.81,-1.71,-1.71,0,*66
1508695510.73,59705,11.88,73256.0,-0.81,-1.75,-1.75,0,*67
1508695511.92,59706,11.88,73258.3,-0.81,-1.79,-1.71,0,*6C
1508695513.12,59707,11.88,73256.0,-0.81,-1.67,-1.67,0,*65
1508695514.32,59708,11.88,73258.5,-0.81,-1.71,-1.67,0,*6D
1508695515.52,59709,11.88,73254.5,-0.81,-1.71,-1.67,0,*6C
1508695516.71,59710,11.88,73256.8,-0.81,-1.67,-1.59,0,*6E
1508695517.91,59711,11.88,73258.3,-0.81,-1.71,-1.67,0,*65
1508695519.1,59712,11.88,73258.3,-0.81,-1.67,-1.59,0,*6C
1508695520.29,59713,11.88,73256.5,-0.81,-1.67,-1.59,0,*6D
1508695521.5,59714,11.88,73254.8,-0.79,-1.55,-1.55,0,*60
1508695522.69,59715,11.88,73254.3,-0.81,-1.59,-1.59,0,*66
1508695523.88,59716,11.81,73252.8,-0.81,-1.67,-1.59,0,*68
1508695525.07,59717,11.81,73254.5,-0.81,-1.79,-1.71,0,*6C
1508695526.28,59718,11.88,73254.5,-0.81,-1.71,-1.67,0,*6C
1508695527.46,59719,11.88,73254.0,-0.81,-1.59,-1.59,0,*6A
1508695528.68,59720,11.88,73258.0,-0.83,-1.71,-1.59,0,*68
1508695529.9,59721,11.88,73254.8,-0.79,-1.67,-1.55,0,*67
1508695531.08,59722,11.88,73254.5,-0.81,-1.59,-1.59,0,*62
1508695532.27,59723,11.81,73252.8,-0.81,-1.59,-1.59,0,*63
1508695533.46,59724,11.88,73254.5,-0.81,-1.67,-1.59,0,*69
1508695534.64,59725,11.88,73254.3,-0.81,-1.67,-1.59,0,*68
1508695535.83,59726,11.88,73256.8,-0.81,-1.59,-1.59,0,*66
1508695537.01,59727,11.88,73252.8,-0.81,-1.59,-1.59,0,*67
1508695538.2,59728,11.88,73258.0,-0.81,-1.59,-1.59,0,*68
1508695539.38,59729,11.88,73256.5,-0.81,-1.59,-1.59,0,*69
1508695540.6,59730,11.88,73254.0,-0.79,-1.55,-1.55,0,*66
1508695541.81,59731,11.88,73254.8,-0.79,-1.55,-1.55,0,*67
1508695543.0,59732,11.88,73258.0,-0.81,-1.59,-1.55,0,*6F
1508695544.18,59733,11.88,73258.8,-0.81,-1.67,-1.59,0,*6F
1508695545.38,59734,11.88,73256.3,-0.81,-1.67,-1.67,0,*65
1508695546.59,59735,11.88,73256.0,-0.79,-1.63,-1.55,0,*66
1508695547.79,59736,11.88,73258.8,-0.81,-1.67,-1.67,0,*67
1508695549.0,59737,11.88,73252.5,-0.79,-1.63,-1.63,0,*61
1508695550.19,59738,11.88,73258.5,-0.81,-1.63,-1.63,0,*69
1508695551.39,59739,11.88,73256.0,-0.81,-1.67,-1.63,0,*6C
1508695552.61,59740,11.88,73258.0,-0.79,-1.75,-1.67,0,*62
1508695553.82,59741,11.88,73256.8,-0.79,-1.75,-1.75,0,*60
1508695555.04,59742,11.88,73258.8,-0.79,-1.75,-1.67,0,*60
1508695556.24,59743,11.81,73252.8,-0.81,-1.71,-1.67,0,*62
1508695557.43,59744,11.88,73254.3,-0.81,-1.67,-1.59,0,*6F
1508695558.62,59745,11.88,73256.0,-0.81,-1.59,-1.59,0,*63
1508695559.8,59746,11.88,73258.0,-0.81,-1.59,-1.59,0,*60
1508695560.99,59747,11.88,73254.3,-0.81,-1.59,-1.59,0,*61
1508695562.2,59748,11.88,73252.5,-0.79,-1.63,-1.55,0,*6C
1508695563.4,59749,11.88,73256.0,-0.81,-1.71,-1.67,0,*68
1508695564.6,59750,11.88,73256.5,-0.81,-1.67,-1.67,0,*67
1508695565.78,59751,11.88,73256.0,-0.81,-1.59,-1.59,0,*66
1508695566.99,59752,11.88,73258.0,-0.79,-1.55,-1.55,0,*62
1508695568.18,59753,11.88,73258.8,-0.81,-1.59,-1.59,0,*64
1508695569.36,59754,11.88,73256.0,-0.81,-1.59,-1.59,0,*63
1508695570.58,59755,11.81,73252.8,-0.79,-1.75,-1.63,0,*62
1508695571.77,59756,11.88,73258.5,-0.81,-1.79,-1.59,0,*63
1508695572.99,59757,11.88,73256.8,-0.79,-1.71,-1.63,0,*64
1508695574.19,59758,11.81,73252.5,-0.81,-1.79,-1.67,0,*60
1508695575.41,59759,11.88,73256.3,-0.83,-1.71,-1.79,0,*64
1508695576.6,59760,11.88,73256.0,-0.81,-1.79,-1.79,0,*64
1508695577.8,59761,11.88,73258.5,-0.81,-1.79,-1.79,0,*65
1508695578.99,59762,11.88,73258.3,-0.81,-1.67,-1.67,0,*66
1508695580.18,59763,11.88,73256.3,-0.81,-1.59,-1.67,0,*6A
1508695581.37,59764,11.88,73258.3,-0.81,-1.67,-1.59,0,*6D
1508695582.59,59765,11.88,73256.8,-0.83,-1.59,-1.67,0,*6E
1508695583.81,59766,11.88,73256.5,-0.83,-1.67,-1.59,0,*6D
1508695585.02,59767,11.81,73254.0,-0.85,-1.71,-1.63,0,*64
1508695586.23,59768,11.88,73258.0,-0.81,-1.71,-1.71,0,*6C
1508695587.42,59769,11.88,73258.8,-0.81,-1.79,-1.79,0,*6D
1508695588.64,59770,11.88,73254.5,-0.81,-1.83,-1.79,0,*60
1508695589.83,59771,11.88,73252.5,-0.81,-1.79,-1.79,0,*64
1508695591.06,59772,11.81,73254.3,-0.83,-1.71,-1.71,0,*65
1508695592.28,59773,11.88,73252.0,-0.83,-1.79,-1.71,0,*6C
1508695593.5,59774,11.88,73256.0,-0.83,-1.79,-1.79,0,*63
1508695594.72,59775,11.88,73256.8,-0.83,-1.79,-1.79,0,*62
1508695595.94,59776,11.88,73258.8,-0.83,-1.79,-1.79,0,*61
1508695597.21,59777,11.88,73258.0,-0.83,-1.91,-1.83,0,*63
1508695598.44,59778,11.88,73258.5,-0.83,-1.79,-1.71,0,*67
1508695599.65,59779,11.88,73254.8,-0.85,-1.75,-1.75,0,*68
1508695600.86,59780,11.88,73254.5,-0.83,-1.59,-1.67,0,*65
1508695602.08,59781,11.88,73256.0,-0.85,-1.75,-1.71,0,*6B
1508695603.34,59782,11.88,73252.5,-0.85,-1.83,-1.83,0,*6C
1508695604.59,59783,11.88,73252.0,-0.83,-1.83,-1.79,0,*6E
1508695605.86,59784,11.88,73252.0,-0.83,-1.83,-1.83,0,*6C
1508695607.09,59785,11.88,73256.3,-0.83,-1.67,-1.71,0,*6A
1508695608.3,59786,11.81,73250.8,-0.83,-1.59,-1.67,0,*63
1508695609.53,59787,11.88,73254.8,-0.83,-1.67,-1.71,0,*68
1508695610.75,59788,11.88,73252.8,-0.83,-1.67,-1.71,0,*67
1508695611.98,59789,11.88,73258.5,-0.83,-1.71,-1.71,0,*61
1508695613.19,59790,11.88,73252.3,-0.85,-1.79,-1.79,0,*6F
1508695614.45,59791,11.88,73258.0,-0.85,-1.87,-1.83,0,*6A
1508695615.67,59792,11.81,73250.0,-0.85,-1.75,-1.71,0,*69
1508695616.89,59793,11.88,73252.8,-0.85,-1.71,-1.71,0,*6C
1508695618.11,59794,11.88,73254.8,-0.83,-1.59,-1.67,0,*60
1508695619.32,59795,11.88,73258.3,-0.85,-1.75,-1.75,0,*6A
1508695620.53,59796,11.88,73252.8,-0.85,-1.71,-1.75,0,*6D
1508695621.75,59797,11.81,73254.5,-0.83,-1.59,-1.67,0,*63
1508695622.97,59798,11.88,73254.3,-0.85,-1.71,-1.63,0,*64
1508695624.18,59799,11.88,73252.3,-0.83,-1.59,-1.59,0,*60
1508695625.39,59800,11.88,73256.5,-0.85,-1.63,-1.71,0,*6A
1508695626.61,59801,11.88,73256.3,-0.83,-1.59,-1.59,0,*6E
1508695627.81,59802,11.88,73256.0,-0.85,-1.63,-1.63,0,*6B
1508695629.03,59803,11.88,73256.5,-0.83,-1.59,-1.67,0,*61
1508695630.26,59804,11.88,73256.8,-0.83,-1.67,-1.67,0,*6B
1508695631.47,59805,11.88,73258.0,-0.83,-1.67,-1.59,0,*67
1508695632.68,59806,11.88,73252.0,-0.83,-1.59,-1.59,0,*69
1508695633.9,59807,11.88,73252.0,-0.83,-1.59,-1.67,0,*65
1508695635.12,59808,11.88,73258.3,-0.85,-1.75,-1.71,0,*65
1508695636.34,59809,11.88,73256.8,-0.83,-1.67,-1.67,0,*66
1508695637.56,59810,11.88,73258.8,-0.85,-1.71,-1.75,0,*6C
1508695638.77,59811,11.81,73254.8,-0.85,-1.71,-1.75,0,*6D
1508695639.98,59812,11.81,73254.5,-0.85,-1.75,-1.75,0,*6A
1508695641.22,59813,11.88,73258.3,-0.85,-1.83,-1.75,0,*62
1508695642.44,59814,11.88,73258.0,-0.85,-1.71,-1.71,0,*6C
1508695643.66,59815,11.88,73254.8,-0.85,-1.71,-1.67,0,*6A
1508695644.88,59816,11.88,73256.0,-0.83,-1.59,-1.67,0,*65
1508695646.09,59817,11.88,73256.5,-0.85,-1.75,-1.71,0,*6B
1508695647.32,59818,11.88,73252.8,-0.83,-1.79,-1.71,0,*6E
1508695648.53,59819,11.88,73256.8,-0.83,-1.79,-1.75,0,*6B
1508695649.76,59820,11.88,73256.0,-0.83,-1.79,-1.71,0,*65
1508695650.97,59821,11.88,73254.5,-0.85,-1.71,-1.63,0,*69
1508695652.18,59822,11.88,73254.8,-0.85,-1.75,-1.75,0,*69
1508695653.42,59823,11.88,73258.5,-0.85,-1.83,-1.75,0,*61
1508695654.65,59824,11.88,73254.0,-0.83,-1.71,-1.67,0,*6E
1508695655.87,59825,11.81,73250.8,-0.85,-1.71,-1.71,0,*6E
1508695657.08,59826,11.81,73252.3,-0.85,-1.63,-1.63,0,*6D
1508695658.3,59827,11.88,73256.0,-0.85,-1.71,-1.71,0,*6C
1508695659.52,59828,11.88,73254.5,-0.83,-1.59,-1.67,0,*68
1508695660.73,59829,11.88,73258.5,-0.85,-1.63,-1.63,0,*62
1508695661.94,59830,11.88,73252.3,-0.85,-1.63,-1.63,0,*6A
1508695663.15,59831,11.88,73254.8,-0.85,-1.63,-1.63,0,*6B
1508695664.36,59832,11.88,73254.5,-0.83,-1.59,-1.59,0,*6E
1508695665.58,59833,11.88,73252.8,-0.83,-1.67,-1.59,0,*62
1508695666.79,59834,11.88,73254.5,-0.83,-1.59,-1.59,0,*68
1508695668.0,59835,11.88,73254.8,-0.83,-1.59,-1.59,0,*69
1508695669.21,59836,11.88,73252.5,-0.85,-1.63,-1.63,0,*6C
1508695670.42,59837,11.88,73252.5,-0.83,-1.59,-1.59,0,*6B
1508695671.63,59838,11.88,73256.8,-0.85,-1.63,-1.63,0,*62
1508695672.85,59839,11.88,73252.5,-0.83,-1.67,-1.59,0,*68
1508695674.06,59840,11.88,73252.0,-0.85,-1.63,-1.63,0,*6D
1508695675.27,59841,11.81,73252.8,-0.85,-1.63,-1.63,0,*6C
1508695676.47,59842,11.81,73252.8,-0.85,-1.63,-1.63,0,*6F
1508695677.69,59843,11.81,73250.8,-0.85,-1.63,-1.71,0,*6D
1508695678.91,59844,11.88,73252.3,-0.83,-1.67,-1.67,0,*6F
1508695680.14,59845,11.88,73254.8,-0.83,-1.71,-1.67,0,*69
1508695681.35,59846,11.88,73254.3,-0.83,-1.59,-1.63,0,*64
1508695682.56,59847,11.88,73256.3,-0.85,-1.63,-1.63,0,*6A
1508695683.78,59848,11.88,73256.0,-0.85,-1.71,-1.71,0,*65
1508695685.0,59849,11.81,73254.0,-0.83,-1.67,-1.59,0,*6F
1508695686.21,59850,11.88,73252.0,-0.85,-1.75,-1.75,0,*6C
1508695687.42,59851,11.88,73254.3,-0.85,-1.75,-1.59,0,*63
1508695688.64,59852,11.88,73252.8,-0.83,-1.67,-1.67,0,*68
1508695689.86,59853,11.88,73254.8,-0.85,-1.71,-1.71,0,*6F
1508695691.07,59854,11.88,73254.8,-0.85,-1.63,-1.63,0,*68
1508695692.29,59855,11.88,73252.8,-0.83,-1.59,-1.67,0,*62
1508695693.51,59856,11.88,73252.8,-0.85,-1.71,-1.71,0,*6A
1508695694.72,59857,11.88,73254.0,-0.85,-1.71,-1.63,0,*68
1508695695.94,59858,11.88,73256.0,-0.83,-1.67,-1.59,0,*6F
1508695697.16,59859,11.81,73252.5,-0.83,-1.79,-1.71,0,*6B
1508695698.43,59860,11.88,73254.5,-0.85,-1.83,-1.83,0,*6F
1508695699.68,59861,11.88,73254.5,-0.83,-1.71,-1.83,0,*65